Wind_Speed
3 2 2 4 1 3 5 4 6 4 4 3 7 13 17 8 13 14 14 16 17 20 16 16 16 10 5 18 20 21 22 24 19 18 15 15 17 16 18 19 21 19 17 15
1 3 2 3 1 2 2 3 5 9 2 2 8 12 11 3 9 12 13 16 19 16 15 16 18 22 29 27 22 24 23 21 22 19 16 13 15 16 19 20 22 19 16 16
2 1 4 1 2 5 3 3 4 5 6 2 9 5 7 4 4 4 9 13 17 17 16 15 23 30 29 23 18 20 23 22 22 22 17 14 12 16 11 16 16 17 17 17
5 1 3 5 5 1 3 4 7 7 4 4 5 3 3 8 5 10 10 8 12 15 15 15 22 29 32 30 26 23 23 19 19 20 18 17 16 15 15 14 14 15 16 17
2 2 1 5 4 4 2 2 1 2 3 3 4 4 3 7 8 16 13 10 7 12 14 15 20 30 30 31 31 12 13 13 15 17 19 17 17 15 12 10 11 13 15 18
7 1 4 4 1 4 2 2 2 2 1 1 4 4 3 6 7 14 14 13 12 7 5 10 17 19 22 20 19 19 15 14 14 16 17 17 18 16 13 13 11 12 14 16
3 5 3 3 3 3 4 2 1 2 1 3 2 3 3 8 8 10 14 13 10 4 8 12 15 20 23 26 22 19 19 21 24 20 19 19 19 17 18 16 14 13 13 15
2 5 2 4 4 3 2 1 1 3 4 4 1 2 2 6 9 8 6 4 3 5 8 11 12 14 13 15 19 27 28 22 20 19 18 18 19 19 19 19 17 17 15 15
3 1 2 7 1 3 5 2 2 4 1 3 1 3 7 4 5 6 6 4 1 5 7 9 8 12 8 12 16 14 13 19 17 24 23 20 20 20 20 23 20 18 19 17
2 2 0 1 2 11 2 8 2 0 3 7 3 4 6 4 2 3 4 3 4 6 5 6 9 13 12 6 9 11 11 20 18 15 17 16 20 18 15 17 20 17 18 19
6 4 3 2 4 0 3 3 4 2 2 4 6 3 4 5 3 6 6 6 8 5 8 7 10 15 13 10 8 9 12 17 21 24 24 21 19 12 16 19 18 18 16 17
6 2 3 1 3 1 2 2 2 3 2 1 2 4 6 1 4 8 7 6 8 7 6 7 9 10 10 8 4 4 3 11 18 19 19 20 17 15 22 10 28 20 16 15
8 3 4 3 2 2 4 3 2 4 1 5 4 3 2 2 6 7 8 5 6 8 7 2 4 9 9 7 5 5 6 10 14 13 13 16 15 14 16 22 28 20 16 15
2 2 3 6 1 2 4 5 5 5 4 3 8 10 7 4 9 9 7 4 5 7 8 5 5 9 10 10 10 12 12 12 7 12 11 12 10 11 13 12 15 17 19 17
2 1 2 1 1 3 3 6 8 8 6 7 12 7 8 8 10 9 4 3 5 7 9 9 8 8 11 12 13 14 15 14 3 7 11 12 15 9 9 4 4 13 18 19
3 1 1 2 2 4 6 7 8 8 6 8 9 11 3 4 1 3 5 4 6 7 8 9 9 10 10 10 10 11 12 11 10 7 7 10 17 15 8 7 11 20 19 19
1 5 4 7 2 2 8 10 10 4 2 4 7 3 4 2 3 3 4 5 5 6 7 8 7 6 6 4 3 7 11 12 9 8 11 16 17 16 12 9 10 15 17 18
2 3 0 4 2 8 4 5 6 4 1 3 2 2 1 1 0 1 2 3 3 6 9 9 12 15 14 12 10 7 8 8 8 9 9 10 12 12 11 8 8 13 16 19
2 4 2 3 6 4 3 2 0 2 3 2 3 2 1 5 5 10 8 6 5 7 13 17 19 18 18 19 15 10 8 8 8 7 9 12 11 12 10 10 10 11 13 18
5 4 4 3 4 5 3 3 5 3 6 3 1 0 3 5 6 4 8 5 10 21 20 20 22 24 24 23 21 20 18 14 15 10 11 12 13 12 12 10 10 12 12 17
2 2 5 4 4 2 1 4 1 5 3 3 1 4 7 7 8 12 15 16 19 21 23 24 25 26 28 29 26 22 21 20 18 20 16 14 15 14 13 11 10 11 12 14
0 1 2 2 3 5 3 2 3 5 2 3 6 8 11 13 15 16 17 17 19 21 22 24 25 27 28 26 25 25 24 23 24 16 16 14 17 14 14 11 12 11 11 14
2 2 2 3 2 1 1 3 4 3 7 9 9 13 14 16 19 19 19 20 19 25 26 25 25 26 27 27 27 27 27 25 22 18 16 16 14 15 14 13 12 12 12 12
2 1 2 3 1 4 5 4 6 6 10 13 15 17 18 20 21 22 20 19 17 26 26 26 25 26 27 27 28 27 24 21 21 18 17 17 16 16 17 16 15 14 14 14
3 3 1 3 5 6 8 9 8 10 13 15 17 19 20 21 22 22 19 19 22 25 27 25 24 25 27 27 28 27 24 19 18 17 17 19 21 20 19 19 18 16 19 17
3 1 3 5 7 6 10 10 9 14 18 19 20 21 21 21 21 22 20 25 25 24 27 25 25 26 28 27 27 27 23 21 19 19 19 21 21 22 21 19 19 20 25 25
Wind_Direction
42 261 60 332 62 303 291 289 305 266 279 281 277 259 272 237 224 231 212 211 213 215 216 205 194 153 206 229 219 212 211 218 204 208 209 220 225 227 210 225 235 240 232 228
231 225 161 281 5 266 241 285 284 291 293 230 283 282 299 264 260 249 223 218 223 219 216 190 182 170 185 217 219 218 215 213 208 212 212 213 213 228 221 230 237 240 232 226
223 312 256 208 331 305 198 237 261 281 314 222 310 300 8 339 315 314 234 225 228 227 215 186 183 187 194 215 244 228 220 212 210 218 215 220 221 225 225 228 238 228 233 233
248 260 235 304 309 204 302 218 265 285 281 320 347 323 9 344 340 41 21 239 240 234 221 195 186 198 197 196 206 214 216 210 213 214 212 210 221 227 229 230 234 228 233 238
159 194 285 298 273 200 282 334 337 311 283 276 33 286 69 349 345 355 348 350 291 247 225 194 196 199 200 200 212 201 231 221 214 217 221 218 224 233 248 244 245 232 234 235
269 208 260 241 357 214 114 205 78 103 327 196 0 329 43 6 323 321 329 334 335 297 225 184 192 195 200 201 206 205 215 222 214 219 224 234 235 224 232 245 249 239 230 229
293 245 231 210 225 177 198 248 332 176 32 16 329 256 345 324 330 313 314 328 352 74 155 158 171 183 188 188 181 175 200 216 216 210 213 222 235 240 236 235 241 246 244 237
260 153 229 163 237 160 112 336 48 354 336 342 183 282 34 316 323 330 331 345 60 138 161 167 177 189 150 187 187 191 184 205 216 211 217 217 227 233 237 236 236 241 243 247
201 140 58 62 122 281 148 135 29 118 118 259 350 257 260 274 326 3 10 5 219 185 175 179 146 112 79 174 202 223 204 201 223 227 216 222 229 230 233 238 241 238 243 247
196 228 61 32 198 56 356 133 186 50 276 293 245 260 275 216 242 30 34 339 264 229 103 84 79 73 75 98 193 211 214 210 223 241 241 231 230 229 244 248 243 239 245 254
173 235 157 239 21 123 154 151 71 109 322 296 293 288 341 272 304 333 347 329 301 323 44 54 59 57 52 59 85 184 216 234 248 256 257 257 245 240 271 253 249 251 244 252
178 176 214 103 16 2 324 104 216 268 238 143 292 262 343 308 329 321 318 332 329 330 23 53 45 45 47 48 71 99 192 243 248 253 258 256 255 197 221 300 282 252 233 234
179 189 148 146 161 220 233 136 113 108 142 202 259 270 356 282 298 314 295 322 353 348 352 29 82 59 51 44 32 355 329 264 237 230 245 255 251 233 207 198 236 244 224 217
123 134 226 269 356 106 181 177 186 242 240 260 250 280 253 289 302 299 283 310 20 24 29 35 54 44 31 27 11 7 358 354 234 219 226 234 237 231 225 206 218 236 225 211
340 163 213 201 185 204 240 212 197 222 259 253 310 258 285 324 317 308 312 18 49 41 43 36 40 36 21 18 3 1 358 10 4 234 257 266 273 280 229 204 230 254 232 222
0 137 182 264 214 241 253 251 242 242 235 253 268 273 265 340 75 102 65 58 49 29 21 23 21 23 25 18 1 347 346 354 8 0 327 324 335 332 324 283 246 247 234 222
327 159 182 252 360 293 261 256 249 234 218 273 254 354 161 134 104 63 55 42 39 2 354 343 341 338 329 321 319 327 325 335 342 342 340 342 349 347 336 298 253 244 233 223
161 124 202 271 200 252 51 351 239 236 151 196 159 122 178 213 108 318 320 327 319 310 308 314 317 317 314 312 310 308 298 306 318 316 318 323 333 340 334 317 279 253 243 233
247 160 165 238 227 331 209 163 171 239 176 175 158 143 62 354 287 266 245 253 291 331 313 303 302 301 307 307 309 299 294 287 289 292 304 304 309 316 328 322 312 297 271 249
92 83 217 161 238 252 77 112 3 162 258 167 212 184 327 334 276 303 11 261 279 302 299 293 294 293 294 293 297 296 294 293 296 289 294 298 294 288 296 304 304 300 286 270
106 72 221 208 248 269 51 353 212 233 30 151 291 314 301 283 280 292 290 283 278 281 284 284 282 279 281 286 286 280 283 278 279 289 289 289 293 286 275 290 293 288 284 271
264 229 185 167 246 255 32 127 305 353 278 257 293 300 301 295 294 294 293 291 291 287 283 280 280 279 279 280 278 278 276 278 278 277 280 283 289 293 277 275 283 281 270 271
219 303 348 247 359 21 327 50 346 283 280 280 277 305 306 294 292 291 291 289 286 286 285 283 280 282 280 277 271 274 276 277 269 270 270 275 278 285 283 267 268 273 268 261
154 158 269 279 140 249 250 248 269 272 274 285 286 290 294 290 290 288 288 285 288 287 283 283 284 280 279 277 274 272 274 276 263 258 259 265 272 280 281 272 259 257 260 260
27 178 220 266 268 285 262 242 259 294 295 291 287 288 290 292 290 289 286 283 282 280 280 279 277 275 275 278 275 271 272 271 265 260 262 265 265 267 272 272 262 248 254 254
188 102 290 302 310 278 276 281 299 295 295 296 294 293 290 291 287 286 283 282 282 282 283 279 273 270 271 275 274 272 270 267 264 262 259 261 260 258 260 263 267 260 257 265
Height
780 784 793 790 788 789 792 797 799 783 770 775 772 769 754 751 754 752 758 759 761 761 766 776 783 792 792 792 795 796 799 801 806 810 813 816 818 821 822 823 826 827 828 830
783 792 784 784 785 791 795 796 791 777 773 775 770 764 752 755 752 749 752 755 754 758 764 775 782 784 778 780 791 794 795 799 801 806 808 813 814 816 820 822 822 826 827 827
793 786 782 782 787 788 790 791 788 788 776 773 773 769 767 752 750 747 746 747 747 751 758 770 777 780 781 784 791 794 796 795 797 802 806 811 813 814 816 817 817 820 822 825
787 779 782 782 783 782 789 779 783 785 787 795 781 795 772 766 757 751 747 748 746 745 750 761 768 772 777 779 776 787 792 790 795 799 803 806 809 811 813 814 814 816 819 821
786 783 783 786 779 777 780 776 782 786 788 790 787 791 770 767 761 757 752 748 745 742 742 752 757 760 769 777 779 791 793 790 792 797 803 804 806 809 811 813 814 815 817 819
779 772 775 773 770 772 774 780 787 791 792 801 799 801 777 780 779 765 754 748 746 743 746 748 755 760 764 772 777 783 788 791 791 794 800 805 806 806 808 810 813 815 816 817
782 776 768 768 777 773 775 780 804 809 808 811 798 802 782 774 768 767 761 753 749 745 747 748 750 752 758 760 767 777 783 783 782 785 791 796 801 805 803 805 809 811 812 813
796 797 774 767 770 771 780 775 800 830 820 807 799 798 780 768 762 759 758 755 754 750 747 747 750 756 767 771 771 766 766 776 780 782 787 790 794 797 799 799 801 804 806 807
797 790 767 766 765 769 784 788 784 801 816 813 800 787 768 766 763 761 760 757 755 750 747 746 756 761 768 769 772 773 774 773 775 777 775 778 784 788 791 793 795 797 798 800
777 793 774 767 766 768 768 779 793 795 819 823 801 801 782 779 769 766 765 762 757 753 754 757 765 767 769 771 772 774 775 775 773 775 776 772 776 781 790 794 792 793 794 795
770 781 783 773 781 782 781 784 796 793 803 811 814 795 779 778 774 775 770 767 763 759 764 767 771 770 771 773 773 775 775 775 775 773 770 769 771 784 787 794 791 792 790 790
768 775 790 788 781 782 780 784 784 795 810 813 811 798 779 775 774 773 770 771 766 766 770 773 775 774 775 774 775 775 775 773 770 769 767 767 769 778 776 782 784 788 786 786
769 783 798 798 788 781 786 788 791 790 794 807 810 794 780 777 776 772 772 769 769 768 767 772 775 776 777 777 776 775 773 770 766 764 764 766 769 769 768 769 777 787 785 784
765 778 777 789 786 782 790 789 790 785 796 795 793 785 779 782 781 776 773 772 772 772 772 771 774 777 777 776 775 773 770 767 763 763 764 767 769 775 773 768 772 779 782 780
765 779 785 784 785 785 784 784 787 789 785 796 783 792 781 784 787 783 778 777 776 776 775 776 777 778 777 775 774 771 768 766 764 764 764 764 765 768 769 763 765 769 775 774
773 786 788 787 784 787 789 782 783 786 789 791 788 787 786 786 785 785 784 782 782 781 780 781 780 779 778 778 777 775 771 768 765 763 762 760 757 755 755 753 756 759 765 768
780 785 792 795 797 794 798 783 782 783 786 786 790 783 787 790 789 789 787 786 786 785 782 781 780 781 781 780 779 777 773 769 766 763 759 756 755 755 753 751 753 756 759 760
789 793 797 793 799 812 788 784 784 785 790 789 790 791 790 790 790 790 789 787 785 785 782 780 779 778 778 777 776 776 774 770 766 763 760 758 756 756 756 755 753 754 755 756
787 789 800 801 798 797 789 787 789 789 791 789 791 793 792 792 790 787 786 786 786 785 784 781 778 777 774 773 773 772 771 769 767 762 758 756 754 753 753 753 750 749 748 748
789 789 787 807 804 804 792 787 786 786 795 791 791 793 794 793 792 783 785 786 785 784 783 779 776 773 770 768 768 766 764 764 761 758 756 753 751 751 750 750 748 746 743 741
794 796 796 797 797 792 789 788 786 802 799 793 793 793 795 797 791 786 784 783 783 781 779 776 772 768 765 762 760 758 757 755 755 753 751 749 748 746 746 745 744 743 740 738
795 797 797 805 803 802 790 789 796 794 791 792 792 790 791 788 785 781 779 777 774 772 771 769 765 760 758 757 754 750 747 747 746 747 745 744 743 741 741 740 739 738 737 734
799 796 795 798 794 794 791 791 790 792 792 790 790 785 784 782 778 775 771 769 765 763 760 758 756 752 750 748 746 742 740 740 740 738 738 737 737 736 735 735 734 733 732 731
798 800 796 798 795 793 790 790 790 788 788 785 783 780 778 775 771 767 764 760 756 754 751 749 746 743 740 738 735 733 732 732 731 731 730 730 730 730 729 728 728 727 727 726
796 799 799 796 792 791 788 787 785 784 782 780 777 775 771 768 763 759 755 752 748 746 742 741 739 735 730 729 726 724 724 723 723 722 722 722 722 722 721 720 719 719 718 719
795 796 796 795 789 791 786 781 783 782 778 775 771 767 763 760 754 750 746 742 739 736 733 731 729 726 723 721 718 716 715 716 715 714 714 714 714 713 713 713 711 710 709 708